Khon Kaen, Thailand

2:51 PM +07 on May 25, 2018 (GMT +0700)
Khon Kaen

Weather History for VTUK - November, 2012

Change the Weather History Date:

Saturday, November 17, 2012

  Actual Average (WUND) Record (WUND)
Temperature  
Mean Temperature 82 °F -  
Max Temperature 87 °F 86 °F - (-1)
Min Temperature 77 °F 64 °F - (-1)
Cooling Degree Days 17    
Growing Degree Days 32 (Base 50)    
Moisture  
Dew Point 72 °F    
Average Humidity 72    
Maximum Humidity 94    
Minimum Humidity 53    
Precipitation  
Precipitation 0.00 in 0.01 in - ()
Sea Level Pressure  
Sea Level Pressure 29.88 in    
Wind  
Wind Speed 4 mph ()    
Max Wind Speed 10 mph    
Max Gust Speed -    
Visibility 6.2 miles    
Events      
Averages and records for this station are not official NWS values.
T = Trace of Precipitation, MM = Missing Value Source: Averaged Metar Reports

Daily Weather History Graph

Daily Weather History Graph

Search for Another Location

Airport or City:

Astronomy

Nov. 17, 2012 Rise Set
Actual Time 6:13 AM +07 5:33 PM +07
Civil Twilight 5:50 AM +07 5:56 PM +07
Nautical Twilight 5:24 AM +07 6:22 PM +07
Astronomical Twilight 4:58 AM +07 6:48 PM +07
Moon 9:27 AM +07 (11/17) 9:07 PM +07 (11/17)
Length of Visible Light 12h 06m
Length of Day
11h 20m
Waxing Crescent, 15% of the Moon is Illuminated
Nov 17
Waxing Crescent
Nov 20
First Quarter
Nov 28
Full
Dec 6
Last Quarter
Dec 13
New

Hourly Weather History & Observations

Time (+07) Temp. Heat Index Dew Point Humidity Pressure Visibility Wind Dir Wind Speed Gust Speed Precip Events Conditions
1:00 AM 81 °F - 68 °F 55% 29.86 in 6 mi NE 5.8 mph - -   Scattered Clouds
4:00 AM 78.8 °F - 73.4 °F 83% 29.86 in 6.2 mi ENE 1.2 mph - N/A   Mostly Cloudy
6:00 AM 77.0 °F - 73.4 °F 89% 29.89 in 6.2 mi Calm Calm - N/A   Mostly Cloudy
7:00 AM 78 °F - 72 °F 75% 29.89 in 6 mi Calm Calm - -   Overcast
7:00 AM 77.0 °F - 73.4 °F 89% 29.92 in 6.2 mi Variable 1.2 mph - N/A   Mostly Cloudy
8:00 AM 78.8 °F - 73.4 °F 83% 29.92 in 6.2 mi East 8.1 mph - N/A   Mostly Cloudy
9:00 AM 77.0 °F - 75.2 °F 94% 29.95 in 6.2 mi ENE 6.9 mph - N/A   Overcast
11:00 AM 82.4 °F 89.5 °F 75.2 °F 79% 29.95 in 6.2 mi East 6.9 mph - N/A   Mostly Cloudy
12:00 PM 84.2 °F 92.3 °F 75.2 °F 74% 29.92 in 6.2 mi East 5.8 mph - N/A   Mostly Cloudy
1:00 PM 84 °F - 71 °F 58% 29.87 in 6 mi ENE 6.9 mph - -   Overcast
1:00 PM 84.2 °F 90.9 °F 73.4 °F 70% 29.89 in 6.2 mi ENE 6.9 mph - N/A   Mostly Cloudy
2:00 PM 87.8 °F 95.6 °F 73.4 °F 62% 29.86 in 6.2 mi NE 10.4 mph - N/A   Mostly Cloudy
3:00 PM 86.0 °F 91.8 °F 71.6 °F 62% 29.83 in 6.2 mi ENE 6.9 mph - N/A   Mostly Cloudy
4:00 PM 84.2 °F 89.6 °F 71.6 °F 66% 29.83 in 6.2 mi Variable 2.3 mph - N/A   Mostly Cloudy
5:00 PM 84.2 °F 88.4 °F 69.8 °F 62% 29.83 in 6.2 mi ENE 4.6 mph - N/A   Mostly Cloudy
6:00 PM 82.4 °F 86.3 °F 69.8 °F 66% 29.86 in 6.2 mi ENE 4.6 mph - N/A   Mostly Cloudy
7:00 PM 82 °F - 68 °F 53% 29.86 in 6 mi NE 5.8 mph - -   Scattered Clouds
7:00 PM 80.6 °F 83.9 °F 69.8 °F 70% 29.86 in 6.2 mi NE 5.8 mph - N/A   Mostly Cloudy
8:00 PM 80.6 °F 83.9 °F 69.8 °F 70% 29.92 in 6.2 mi NE 5.8 mph - N/A   Mostly Cloudy